Location: Newark
(43.3556°N, 77.1278°E)
Time: 18:50:37
(UTC+00:00)

N. Korean satellite - Visible Passes

Search period start: 14 October 2019 00:00
Search period end: 24 October 2019 00:00
Orbit: 455 x 508 km, 97.2° (Epoch: 14 October)

Date Brightness Start Highest point End Pass type
(mag) Time Alt. Az. Time Alt. Az. Time Alt. Az.
15 Oct 9.9 12:50:34 10° SW 12:52:59 18° W 12:55:26 10° NW visible
16 Oct 8.9 00:14:42 10° NE 00:17:52 29° E 00:21:03 10° SSE visible
16 Oct 10.1 23:50:18 10° NE 23:52:25 15° E 23:54:33 10° SE visible
18 Oct 10.4 13:09:37 10° WSW 13:10:37 11° W 13:11:38 10° WNW visible
19 Oct 7.8 00:31:55 10° NNE 00:35:26 49° E 00:38:59 10° S visible
19 Oct 9.5 12:42:24 10° SSW 12:45:08 22° W 12:47:53 10° NW visible
20 Oct 9.3 00:07:03 10° NE 00:10:02 24° E 00:13:03 10° SSE visible
20 Oct 10.3 23:43:00 10° ENE 23:44:34 12° E 23:46:07 10° ESE visible
22 Oct 10.1 13:00:52 10° SW 13:02:43 14° W 13:04:34 10° WNW visible
23 Oct 8.3 00:24:09 10° NNE 00:27:36 39° E 00:31:04 10° SSE visible
23 Oct 9.0 12:34:15 10° SSW 12:37:14 28° W 12:40:16 10° NW visible
